N456SB LSZB-LFMN

Flight info

Callsign N456SB
Flight time 1h 4m
Altitude 35000
Route AMRID Z144 ESEVA Z669 VADAR Y58 GEVEA/N0490F310 DCT KOGAS DCT MEDAM DCT VEVAR
Aircraft C700/M-SBDGHM1RWXY/LB2

Departure

Time 2026-05-04 17:12
Airport Bern Airport (LSZB)

Arrival

Time 2026-05-04 18:17
Airport Nice-Côte d'Azur Airport (LFMN)
Time Latitude Longitude Altitude Speed Heading
2026-05-04 16:55 46.91530 7.49781 1674 ft 0 kts 57°
2026-05-04 17:05 46.91517 7.49749 1679 ft 3 kts 18°
2026-05-04 17:06 46.91488 7.49775 1674 ft 0 kts 319°
2026-05-04 17:07 46.91522 7.49734 1677 ft 7 kts 321°
2026-05-04 17:07 46.91531 7.49715 1676 ft 0 kts 283°
2026-05-04 17:08 46.91531 7.49711 1676 ft 3 kts 273°
2026-05-04 17:08 46.91503 7.49635 1673 ft 11 kts 250°
2026-05-04 17:09 46.91535 7.49567 1677 ft 8 kts 320°
2026-05-04 17:09 46.91580 7.49512 1674 ft 9 kts 321°
2026-05-04 17:09 46.91654 7.49424 1673 ft 21 kts 320°
2026-05-04 17:10 46.91897 7.49122 1672 ft 16 kts 319°
2026-05-04 17:10 46.91955 7.49079 1671 ft 5 kts 155°
2026-05-04 17:11 46.91930 7.49088 1672 ft 3 kts 145°
2026-05-04 17:11 46.91925 7.49093 1672 ft 0 kts 141°
2026-05-04 17:11 46.91454 7.49666 1682 ft 120 kts 140°
2026-05-04 17:12 46.90667 7.50641 1829 ft 171 kts 140°
2026-05-04 17:12 46.88893 7.54333 2486 ft 260 kts 112°
2026-05-04 17:13 46.90665 7.60050 4916 ft 200 kts
2026-05-04 17:14 46.94879 7.59828 6580 ft 189 kts
2026-05-04 17:14 46.96171 7.60251 7304 ft 201 kts 29°
2026-05-04 17:14 46.98442 7.63100 8838 ft 231 kts 47°
2026-05-04 17:15 46.99718 7.64721 9654 ft 239 kts 35°
2026-05-04 17:15 47.02769 7.64433 10994 ft 248 kts 316°
2026-05-04 17:16 47.03392 7.60136 12470 ft 222 kts 242°
2026-05-04 17:16 47.01090 7.54273 14786 ft 225 kts 242°
2026-05-04 17:17 47.00384 7.52218 15517 ft 235 kts 242°
2026-05-04 17:17 46.97973 7.45322 17907 ft 273 kts 242°
2026-05-04 17:18 46.97089 7.42793 18682 ft 285 kts 242°
2026-05-04 17:18 46.95194 7.37450 20170 ft 305 kts 240°
2026-05-04 17:19 46.93172 7.31810 21712 ft 319 kts 239°
2026-05-04 17:19 46.90801 7.26267 23341 ft 329 kts 236°
2026-05-04 17:20 46.88350 7.20512 24797 ft 337 kts 237°
2026-05-04 17:20 46.85853 7.14649 26367 ft 340 kts 236°
2026-05-04 17:20 46.84607 7.11741 27250 ft 337 kts 236°
2026-05-04 17:21 46.82147 7.05981 29087 ft 330 kts 236°
2026-05-04 17:21 46.79697 7.00506 30866 ft 318 kts 230°
2026-05-04 17:22 46.78295 6.98065 31717 ft 310 kts 231°
2026-05-04 17:22 46.76975 6.95636 32588 ft 301 kts 232°
2026-05-04 17:23 46.73260 6.88920 34973 ft 272 kts 232°
2026-05-04 17:23 46.72042 6.86719 34985 ft 287 kts 232°
2026-05-04 17:23 46.69415 6.81990 34999 ft 309 kts 232°
2026-05-04 17:24 46.68086 6.79606 35000 ft 297 kts 232°
2026-05-04 17:24 46.64415 6.73237 34973 ft 250 kts 229°
2026-05-04 17:25 46.63258 6.71364 34978 ft 250 kts 230°
2026-05-04 17:25 46.60909 6.67526 34985 ft 263 kts 229°
2026-05-04 17:26 46.58509 6.63634 34978 ft 249 kts 229°
2026-05-04 17:26 46.55064 6.57971 34982 ft 260 kts 230°
2026-05-04 17:27 46.52602 6.54024 35004 ft 274 kts 232°
2026-05-04 17:27 46.49870 6.49730 35013 ft 304 kts 229°
2026-05-04 17:28 46.46937 6.44890 35018 ft 334 kts 229°
2026-05-04 17:29 46.41741 6.37240 35023 ft 375 kts 227°
2026-05-04 17:29 46.35984 6.28755 35074 ft 410 kts 226°
2026-05-04 17:30 46.28855 6.21437 35513 ft 434 kts 206°
2026-05-04 17:31 46.23015 6.19070 35012 ft 432 kts 191°
2026-05-04 17:31 46.13973 6.20054 35087 ft 454 kts 168°
2026-05-04 17:32 46.08064 6.23342 35567 ft 462 kts 163°
2026-05-04 17:33 45.98989 6.28595 35127 ft 474 kts 163°
2026-05-04 17:33 45.96021 6.30332 35004 ft 458 kts 163°
2026-05-04 17:34 45.84089 6.37215 34990 ft 459 kts 163°
2026-05-04 17:35 45.75767 6.44273 34983 ft 470 kts 150°
2026-05-04 17:35 45.70427 6.49683 34982 ft 470 kts 149°
2026-05-04 17:36 45.65088 6.55124 34995 ft 471 kts 150°
2026-05-04 17:36 45.59735 6.60541 34999 ft 473 kts 150°
2026-05-04 17:37 45.54357 6.65985 35009 ft 473 kts 150°
2026-05-04 17:37 45.49000 6.71387 35024 ft 471 kts 150°
2026-05-04 17:38 45.43680 6.76741 35034 ft 471 kts 150°
2026-05-04 17:38 45.38281 6.82162 35049 ft 473 kts 150°
2026-05-04 17:39 45.30185 6.90193 35059 ft 471 kts 154°
2026-05-04 17:39 45.24454 6.93778 35058 ft 459 kts 169°
2026-05-04 17:40 45.18297 6.95276 35053 ft 448 kts 179°
2026-05-04 17:40 45.12077 6.96257 35071 ft 453 kts 179°
2026-05-04 17:41 45.05810 6.97187 34615 ft 457 kts 180°
2026-05-04 17:41 45.02689 6.97682 33905 ft 456 kts 179°
2026-05-04 17:41 44.99560 6.98214 33226 ft 451 kts 178°
2026-05-04 17:42 44.96470 6.98728 32562 ft 447 kts 178°
2026-05-04 17:42 44.93354 6.99185 31921 ft 452 kts 178°
2026-05-04 17:42 44.91280 6.99484 31511 ft 456 kts 178°
2026-05-04 17:42 44.87025 7.00152 30704 ft 463 kts 177°
2026-05-04 17:43 44.83821 7.00666 30096 ft 464 kts 177°
2026-05-04 17:43 44.81723 7.00992 29648 ft 464 kts 177°
2026-05-04 17:43 44.77445 7.01852 28783 ft 466 kts 173°
2026-05-04 17:43 44.74264 7.02638 28122 ft 466 kts 173°
2026-05-04 17:44 44.71050 7.03394 27469 ft 467 kts 173°
2026-05-04 17:44 44.68965 7.03875 27049 ft 467 kts 173°
2026-05-04 17:44 44.64723 7.04889 26216 ft 464 kts 173°
2026-05-04 17:44 44.62674 7.05386 25820 ft 462 kts 173°
2026-05-04 17:45 44.59833 7.06063 25268 ft 458 kts 173°
2026-05-04 17:45 44.56758 7.06791 24678 ft 422 kts 173°
2026-05-04 17:45 44.53832 7.07471 24088 ft 430 kts 174°
2026-05-04 17:45 44.49983 7.08348 23250 ft 415 kts 173°
2026-05-04 17:46 44.47191 7.09027 22579 ft 404 kts 173°
2026-05-04 17:46 44.44438 7.09691 21908 ft 395 kts 173°
2026-05-04 17:46 44.41774 7.10313 21254 ft 389 kts 174°
2026-05-04 17:46 44.39986 7.10728 20836 ft 388 kts 174°
2026-05-04 17:47 44.37332 7.11353 20221 ft 387 kts 173°
2026-05-04 17:47 44.34647 7.11990 20055 ft 401 kts 174°
2026-05-04 17:47 44.31839 7.12645 20095 ft 414 kts 173°
2026-05-04 17:47 44.29000 7.13336 20084 ft 413 kts 172°
2026-05-04 17:48 44.26174 7.14029 20085 ft 413 kts 173°
2026-05-04 17:48 44.23333 7.14677 20087 ft 414 kts 173°
2026-05-04 17:48 44.20549 7.15691 20079 ft 416 kts 163°
2026-05-04 17:48 44.17868 7.17218 19890 ft 413 kts 160°
2026-05-04 17:49 44.15310 7.18729 19396 ft 397 kts 160°
2026-05-04 17:49 44.12909 7.20131 18815 ft 384 kts 160°
2026-05-04 17:49 44.10564 7.21506 18249 ft 375 kts 160°
2026-05-04 17:49 44.08174 7.22907 17580 ft 372 kts 160°
2026-05-04 17:50 44.05796 7.24295 16921 ft 370 kts 160°
2026-05-04 17:50 44.03429 7.25682 16276 ft 368 kts 160°
2026-05-04 17:50 44.01074 7.27059 15651 ft 366 kts 160°
2026-05-04 17:50 43.98737 7.28420 15030 ft 363 kts 160°
2026-05-04 17:51 43.96421 7.29777 14430 ft 360 kts 160°
2026-05-04 17:51 43.94106 7.31128 14066 ft 365 kts 160°
2026-05-04 17:51 43.91689 7.32521 14058 ft 383 kts 160°
2026-05-04 17:51 43.89237 7.33953 14063 ft 383 kts 160°
2026-05-04 17:52 43.86778 7.35392 14065 ft 383 kts 159°
2026-05-04 17:52 43.84322 7.36848 14059 ft 385 kts 157°
2026-05-04 17:52 43.82060 7.38772 14054 ft 389 kts 146°
2026-05-04 17:52 43.79949 7.41127 14049 ft 390 kts 143°
2026-05-04 17:53 43.77842 7.43485 13365 ft 387 kts 143°
2026-05-04 17:53 43.75851 7.45690 12389 ft 380 kts 143°
2026-05-04 17:53 43.73844 7.47939 11387 ft 354 kts 143°
2026-05-04 17:53 43.72018 7.49997 10417 ft 325 kts 143°
2026-05-04 17:54 43.70316 7.51890 9412 ft 304 kts 143°
2026-05-04 17:54 43.68816 7.53841 8373 ft 286 kts 131°
2026-05-04 17:54 43.67739 7.55976 7363 ft 259 kts 121°
2026-05-04 17:54 43.66998 7.58196 6381 ft 253 kts 111°
2026-05-04 17:55 43.66439 7.60452 5372 ft 252 kts 110°
2026-05-04 17:55 43.65838 7.62742 4360 ft 250 kts 110°
2026-05-04 17:55 43.65261 7.64930 4037 ft 233 kts 108°
2026-05-04 17:55 43.64538 7.66893 4044 ft 237 kts 130°
2026-05-04 17:56 43.63112 7.68065 4051 ft 245 kts 159°
2026-05-04 17:56 43.61489 7.68677 4042 ft 231 kts 162°
2026-05-04 17:56 43.59996 7.69114 4028 ft 217 kts 173°
2026-05-04 17:56 43.58522 7.68620 4041 ft 219 kts 202°
2026-05-04 17:57 43.57148 7.67753 4042 ft 216 kts 196°
2026-05-04 17:57 43.55712 7.67172 4037 ft 215 kts 190°
2026-05-04 17:57 43.54265 7.66634 4007 ft 216 kts 192°
2026-05-04 17:57 43.52826 7.66049 4001 ft 216 kts 193°
2026-05-04 17:58 43.51398 7.65468 3994 ft 214 kts 192°
2026-05-04 17:58 43.49972 7.64894 3991 ft 212 kts 192°
2026-05-04 17:58 43.48564 7.64277 3988 ft 215 kts 199°
2026-05-04 17:58 43.47295 7.63183 3992 ft 215 kts 209°
2026-05-04 17:59 43.46032 7.62056 3989 ft 217 kts 211°
2026-05-04 17:59 43.44820 7.60826 3988 ft 217 kts 213°
2026-05-04 17:59 43.42502 7.58164 3992 ft 217 kts 218°
2026-05-04 18:00 43.41373 7.56690 4003 ft 228 kts 222°
2026-05-04 18:00 43.40301 7.55149 3999 ft 219 kts 224°
2026-05-04 18:00 43.39318 7.53614 3999 ft 217 kts 226°
2026-05-04 18:00 43.38355 7.51976 3994 ft 219 kts 229°
2026-05-04 18:01 43.37456 7.50304 4000 ft 221 kts 231°
2026-05-04 18:01 43.36597 7.48549 3998 ft 221 kts 233°
2026-05-04 18:01 43.35797 7.46748 3998 ft 223 kts 237°
2026-05-04 18:02 43.34358 7.42975 4002 ft 223 kts 242°
2026-05-04 18:02 43.33733 7.41035 4001 ft 223 kts 245°
2026-05-04 18:02 43.33168 7.39050 4005 ft 223 kts 247°
2026-05-04 18:02 43.32665 7.37030 4003 ft 224 kts 250°
2026-05-04 18:03 43.32228 7.34977 4004 ft 223 kts 252°
2026-05-04 18:03 43.31859 7.32906 3994 ft 223 kts 255°
2026-05-04 18:03 43.31561 7.30845 3997 ft 223 kts 257°
2026-05-04 18:03 43.31325 7.28741 3997 ft 223 kts 261°
2026-05-04 18:04 43.31158 7.26642 4010 ft 215 kts 263°
2026-05-04 18:04 43.31065 7.24677 4008 ft 196 kts 265°
2026-05-04 18:04 43.31037 7.21195 3983 ft 184 kts 270°
2026-05-04 18:05 43.31097 7.19323 4000 ft 210 kts 272°
2026-05-04 18:05 43.31230 7.17192 4014 ft 239 kts 275°
2026-05-04 18:05 43.31466 7.14795 4024 ft 267 kts 278°
2026-05-04 18:05 43.31818 7.12228 4020 ft 277 kts 282°
2026-05-04 18:06 43.32842 7.07103 4014 ft 278 kts 288°
2026-05-04 18:06 43.33483 7.04685 4013 ft 262 kts 291°
2026-05-04 18:06 43.34175 7.02450 4008 ft 247 kts 295°
2026-05-04 18:07 43.34898 7.00389 3992 ft 231 kts 298°
2026-05-04 18:07 43.35621 6.98552 4005 ft 206 kts 301°
2026-05-04 18:07 43.36316 6.96945 3987 ft 188 kts 304°
2026-05-04 18:07 43.37018 6.95451 3800 ft 188 kts 307°
2026-05-04 18:08 43.37767 6.93984 3518 ft 186 kts 309°
2026-05-04 18:08 43.38503 6.92643 3490 ft 174 kts 311°
2026-05-04 18:08 43.39279 6.91332 3492 ft 181 kts 314°
2026-05-04 18:08 43.40113 6.90018 3494 ft 183 kts 316°
2026-05-04 18:09 43.42250 6.89206 3495 ft 162 kts 26°
2026-05-04 18:09 43.43833 6.91214 3507 ft 158 kts 49°
2026-05-04 18:10 43.44632 6.92243 3514 ft 155 kts 51°
2026-05-04 18:10 43.45377 6.93307 3509 ft 155 kts 51°
2026-05-04 18:10 43.46104 6.94396 3449 ft 157 kts 51°
2026-05-04 18:10 43.46888 6.95568 3453 ft 174 kts 46°
2026-05-04 18:11 43.47752 6.96706 3458 ft 170 kts 45°
2026-05-04 18:11 43.48584 6.97849 3459 ft 169 kts 46°
2026-05-04 18:11 43.49425 6.98984 3457 ft 169 kts 45°
2026-05-04 18:11 43.50260 7.00113 3453 ft 166 kts 46°
2026-05-04 18:12 43.51074 7.01238 3452 ft 171 kts 45°
2026-05-04 18:12 43.51943 7.02391 3459 ft 168 kts 45°
2026-05-04 18:12 43.52723 7.03476 3416 ft 154 kts 47°
2026-05-04 18:12 43.53501 7.04536 3219 ft 163 kts 45°
2026-05-04 18:13 43.54326 7.05619 2992 ft 161 kts 42°
2026-05-04 18:13 43.55133 7.06696 2777 ft 162 kts 45°
2026-05-04 18:13 43.56721 7.08891 2345 ft 160 kts 43°
2026-05-04 18:14 43.57511 7.09967 2132 ft 159 kts 45°
2026-05-04 18:14 43.58293 7.11033 1921 ft 158 kts 43°
2026-05-04 18:14 43.59082 7.12101 1711 ft 159 kts 45°
2026-05-04 18:15 43.60647 7.14223 1291 ft 159 kts 45°
2026-05-04 18:15 43.62210 7.16351 867 ft 153 kts 44°
2026-05-04 18:15 43.62933 7.17372 670 ft 150 kts 45°
2026-05-04 18:16 43.63683 7.18366 472 ft 148 kts 43°
2026-05-04 18:16 43.64401 7.19366 278 ft 145 kts 45°
2026-05-04 18:16 43.65122 7.20340 71 ft 144 kts 43°
2026-05-04 18:17 43.66251 7.21868 15 ft 79 kts 46°
2026-05-04 18:17 43.66524 7.22249 14 ft 38 kts 45°
2026-05-04 18:17 43.66769 7.22584 11 ft 16 kts 45°
2026-05-04 18:18 43.66825 7.22660 13 ft 11 kts 44°
2026-05-04 18:18 43.66899 7.22755 15 ft 16 kts 26°
2026-05-04 18:18 43.66987 7.22703 12 ft 5 kts 314°
2026-05-04 18:18 43.67010 7.22671 12 ft 0 kts 318°
2026-05-04 18:19 43.67075 7.22689 12 ft 9 kts 44°
2026-05-04 18:19 43.67123 7.22754 13 ft 10 kts 46°
2026-05-04 18:19 43.67177 7.22827 14 ft 12 kts 44°
2026-05-04 18:20 43.67255 7.22826 13 ft 14 kts 300°
2026-05-04 18:20 43.67236 7.22742 14 ft 2 kts 246°
2026-05-04 18:20 43.67244 7.22723 14 ft 6 kts 306°
2026-05-04 18:20 43.67256 7.22704 14 ft 2 kts 313°